Showing default

FLOCK 4H 22, 66725

Orbit data source: Space-Track

FLOCK 4H 22, 66725 is a payload satellite owned by Planet (US) in SSO that was launched on Fri, 28 Nov 2025 UTC via an FALCON 9 launch vehicle from the Air Force Western Test Range (AFWTR). Payload-class satellites include a variety of spacecraft equipped with specific instruments for various scientific and technological missions. These include communications satellites like Starlink; space stations such as the ISS; scientific satellites like the Hubble; Earth observation satellites from companies like Planet Labs, Umbra, and HawkEye 360; GPS; miniature CubeSats for education and research; and military/defense satellites.

Loading next visibility...
Identifier
66725, 2025-276BM
Orbit
SSO
Country
Flag of USUS
Related business
Manufacturer
Planet
Mission
Operational Commercial Imaging
Bus & Motor
CUBESAT 3U, Unknown motor
Mass
5.7 kg wet, 5.7 kg dry
Launch date (UTC)
2025-11-28 (6 months ago)
Launch vehicle
FALCON 9
Launch site
Air Force Western Test Range (AFWTR)
Object type
Payload
Rocket body
Debris
Shape & HBR
Box + 2 Pan, 1.0 m
Radar Cross Section
0.072 m², Medium (>0.1 m² and < 1m²)

Expand to show TLE details & history
Last TLE update: 1 week ago

TLE from 1 week ago
0 FLOCK 4H 22
1 66725U 25276BM  26154.95105580  .00007796  00000-0  36484-3 0  9996
2 66725  97.4171 228.6815 0004154  83.9889 276.1820 15.20006598 28415
Epoch: 2026-06-03T22:49Z
TLE epoch observation values (Epoch: 2026-06-03T22:49:31.221Z)
Latitude
0.00006°
Longitude
-6.10091°
Altitude
508.604 km
Speed
7.61 km/s
True Right ascension
15h 14m 43s
True Declination
0° 00' 00"
Sunlit
Object was in full shadow at epoch
Visualization orbit readout
Latitude
Unknown
Longitude
Unknown
Altitude
Unknown
Speed
Unknown
Apparent Right ascension
Unknown
Apparent Declination
Unknown
Sunlit
N/A
Visualization observer readout
Local Sidereal Time
22:07:14
Azimuth
Unknown
Elevation
Unknown
Doppler factor
Unknown
Orbital elements
Apogee altitude
505.645 km
Perigee altitude
499.929 km
Semi-major axis
6,880.924 km
Eccentricity
0.00042
Inclination
97.4171°
RAAN
228.6815°
Arg. of periapsis
83.9889°
True anomaly
276.13467°
Mean anomaly
276.182°
Eccentric anomaly
276.15834°
Mean motion
3.80253 °/min
Orbital period
94.67 mins
BSTAR
0.00036484
Loading maneuver chart data...
Computing Atmospheric mass density...
Loading historical data...
Loading historical data...
Loading historical data...
Loading historical data...
Loading historical data...
Loading historical data...
Loading historical data...

Documentation

Showing up to 5 results
|